User: anonymous   Login
Location: Lake Runnemede Observatory
(43.4843°N, 72.3851°W)
Time: 04:54:28
(UTC-05:00)
Language:

SPOT 5 - Orbit

View from above orbital plane
View from above orbital plane
View from above satellite
View from above satellite

Ground track
Ground track

The orbit data is extracted from the following two-line orbital elements,

1 27421U 02021A   18050.48459294  .00000025  00000-0  17625-4 0  9992
2 27421  98.3733 118.6145 0133865 291.4001  67.2957 14.51915247821556
Epoch (UTC): 19 February 2018 11:37:48
Eccentricity: 0.0133865
inclination: 98.3733°
perigee height: 624 km
apogee height: 814 km
right ascension of ascending node: 118.6145°
argument of perigee: 291.4001°
revolutions per day: 14.51915247
mean anomaly at epoch: 67.2957°
orbit number at epoch: 82155

The dashed part of the orbit path shows where the satellite is in the earth's shadow,  

DLR